Decatur, AL

9:18 PM CDT on September 26, 2016 (GMT -0500)
Pryor Regional

Weather History for KDCU - September, 2013

Change the Weather History Date:

Sunday, September 15, 2013

  Actual Average Record
Temperature  
Mean Temperature 66 °F -  
Max Temperature 84 °F 86 °F 98 °F (2016)
Min Temperature 51 °F 60 °F 47 °F (1964)
Cooling Degree Days 2    
Growing Degree Days 16 (Base 50)    
Moisture  
Dew Point 57 °F    
Average Humidity 78    
Maximum Humidity 100    
Minimum Humidity 39    
Precipitation  
Precipitation 0.01 in - - ()
Sea Level Pressure  
Sea Level Pressure 30.10 in    
Wind  
Wind Speed 1 mph (South)    
Max Wind Speed 7 mph    
Max Gust Speed -    
Visibility 8 miles    
Events      
Averages and records for this station are not official NWS values.
T = Trace of Precipitation, MM = Missing Value Source: NWS Daily Summary

Daily Weather History Graph

Daily Weather History Graph

Search for Another Location

Airport or City:

Trip Planner

Search our weather history database for the weather conditions in past years. The results will help you decide how hot, cold, wet, or windy it might be!

Date:

Astronomy

Sep. 15, 2013 Rise Set
Actual Time 6:30 AM CDT 6:54 PM CDT
Civil Twilight 6:05 AM CDT 7:19 PM CDT
Nautical Twilight 5:36 AM CDT 7:48 PM CDT
Astronomical Twilight 5:05 AM CDT 8:19 PM CDT
Moon 4:14 PM CDT (9/15) 2:16 AM CDT (9/15)
Length of Visible Light 13h 13m
Length of Day
12h 23m
Waxing Gibbous, 82% of the Moon is Illuminated
Sep 15
Waxing Gibbous
Sep 19
Full
Sep 26
Last Quarter
Oct 4
New
Oct 11
First Quarter

Hourly Weather History & Observations

Time (CDT) Temp. Heat Index Dew Point Humidity Pressure Visibility Wind Dir Wind Speed Gust Speed Precip Events Conditions
12:53 AM 55.0 °F - 53.1 °F 93% 30.06 in 10.0 mi Calm Calm - N/A   Clear
1:53 AM 55.9 °F - 54.0 °F 93% 30.06 in 10.0 mi Calm Calm - N/A   Clear
2:53 AM 55.9 °F - 54.0 °F 93% 30.06 in 7.0 mi Calm Calm - 0.01 in   Clear
3:53 AM 54.0 °F - 53.1 °F 97% 30.07 in 7.0 mi Calm Calm - N/A   Clear
4:53 AM 54.0 °F - 52.0 °F 93% 30.08 in 8.0 mi Calm Calm - N/A   Clear
5:53 AM 52.0 °F - 51.1 °F 97% 30.08 in 4.0 mi Calm Calm - N/A   Clear
6:39 AM 51.8 °F - 50.0 °F 94% 30.11 in 1.5 mi Calm Calm - N/A   Clear
6:53 AM 53.1 °F - 52.0 °F 96% 30.11 in 1.0 mi Calm Calm - N/A   Clear
6:55 AM 53.6 °F - 51.8 °F 94% 30.11 in 4.0 mi Calm Calm - N/A   Clear
7:53 AM 62.1 °F - 59.0 °F 90% 30.11 in 9.0 mi Calm Calm - N/A   Clear
8:53 AM 68.0 °F - 61.0 °F 78% 30.12 in 10.0 mi SE 5.8 mph - N/A   Clear
9:53 AM 73.0 °F - 64.0 °F 73% 30.13 in 10.0 mi SSE 5.8 mph - N/A   Clear
10:53 AM 77.0 °F - 63.0 °F 62% 30.12 in 10.0 mi South 4.6 mph - N/A   Clear
11:53 AM 79.0 °F - 59.0 °F 50% 30.12 in 10.0 mi South 5.8 mph - N/A   Clear
12:53 PM 82.0 °F 82.1 °F 59.0 °F 45% 30.11 in 10.0 mi Variable 6.9 mph - N/A   Clear
1:53 PM 82.0 °F 82.0 °F 57.9 °F 44% 30.09 in 10.0 mi Variable 3.5 mph - N/A   Clear
2:53 PM 82.9 °F 82.1 °F 55.9 °F 39% 30.08 in 10.0 mi West 3.5 mph - N/A   Clear
3:53 PM 82.0 °F 81.6 °F 55.9 °F 41% 30.08 in 10.0 mi Calm Calm - N/A   Clear
4:53 PM 82.0 °F 81.7 °F 57.0 °F 42% 30.08 in 10.0 mi SW 3.5 mph - N/A   Clear
5:53 PM 78.1 °F - 64.9 °F 64% 30.09 in 10.0 mi SSE 3.5 mph - N/A   Clear
6:53 PM 72.0 °F - 61.0 °F 68% 30.09 in 10.0 mi Calm Calm - N/A   Clear
7:53 PM 66.0 °F - 61.0 °F 84% 30.09 in 10.0 mi Calm Calm - N/A   Clear
8:53 PM 62.1 °F - 59.0 °F 90% 30.10 in 10.0 mi Calm Calm - N/A   Clear
9:53 PM 61.0 °F - 57.9 °F 90% 30.11 in 10.0 mi Calm Calm - N/A   Clear
10:53 PM 57.9 °F - 55.9 °F 93% 30.10 in 10.0 mi Calm Calm - N/A   Clear
11:47 PM 55.4 °F - 55.4 °F 100% 30.12 in 1.5 mi Calm Calm - N/A   Clear
11:53 PM 57.0 °F - 55.9 °F 96% 30.11 in 1.5 mi Calm Calm - N/A   Clear